Location: Dana
(41.8364°N, 106.7042°W)
Time: 11:30:19
(UTC+00:00)

Injun/Solrad 3 - Pass Details

Date: 18 May 2026
Orbit: 867 x 989 km, 66.8° (Epoch: 11 June)

Event Time Altitude Azimuth Distance (km) Brightness Sun altitude
Rises 22:57:40 0° 240° (WSW) 3,523 11.7 36.2°
Reaches altitude 10° 23:00:25 10° 250° (WSW) 2,605 11.5 35.7°
Maximum altitude 23:05:47 32° 313° (NW) 1,551 10.1 34.7°
Drops below altitude 10° 23:11:21 10° 15° (NNE) 2,692 10.2 33.7°
Sets 23:14:15 0° 25° (NNE) 3,660 10.8 33.1°
